COSMOS 2251 DEB, 47048

Orbit data source: Space-Track

COSMOS 2251 DEB, 47048 is space debris in LEO originally from a launch on Wed, 16 Jun 1993 UTC launched from the Plesetsk Missile And Space Complex (PKMTR). The debris from Iridium 33, an American commercial communications satellite, has been tracked extensively since its accidental collision with the defunct Russian satellite Cosmos 2251 in 2009. This event, occurring at high speed in low Earth orbit (LEO), generated thousands of pieces of space debris, significantly increasing the risk of further collisions. The Iridium 33 debris cloud has impacted space traffic management and orbital debris mitigation strategies, making it a subject of ongoing study in space situational awareness.

Loading next visibility...
Identifier
47048, 1993-036BXC
Orbit
LEO
Country
Flag of CISCIS
Related business
Manufacturer
Unknown
Mission
Spacecraft
Bus & Motor
Unknown
Mass
Unknown
Launch date (UTC)
1993-06-16 (32 years ago)
Launch vehicle
Unknown
Launch site
Plesetsk Missile And Space Complex (PKMTR)
Object type
Payload
Rocket body
Debris
Shape & HBR
Unknown shape, 0.1 m
Radar Cross Section
Small (<0.1 m²)

Expand to show TLE details & history
Last TLE update: 3 days ago

TLE from 3 days ago
0 COSMOS 2251 DEB
1 47048U 93036BXC 25346.69801112  .00006991  00000-0  15366-2 0  9990
2 47048  73.9781 319.2649 0132875 147.2155  32.9715 14.52302543596898
Epoch: 2025-12-12T16:45Z
TLE epoch observation values (Epoch: 2025-12-12T16:45:08.160Z)
Latitude
-1.10635°
Longitude
166.66101°
Altitude
642.175 km
Speed
7.579 km/s
True Right ascension
09h 18m 19s
True Declination
-1° 05' 59"
Sunlit
Object was in full shadow at epoch
Visualization orbit readout
Latitude
Unknown
Longitude
Unknown
Altitude
Unknown
Speed
Unknown
Apparent Right ascension
Unknown
Apparent Declination
Unknown
Sunlit
N/A
Visualization observer readout
Local Sidereal Time
03:34:13
Azimuth
Unknown
Elevation
Unknown
Doppler factor
Unknown
Orbital elements
Apogee altitude
810.008 km
Perigee altitude
621.488 km
Semi-major axis
7,093.885 km
Eccentricity
0.01329
Inclination
73.9781°
RAAN
319.2649°
Arg. of periapsis
147.2155°
True anomaly
33.81182°
Mean anomaly
32.9715°
Eccentric anomaly
33.39049°
Mean motion
3.63259 °/min
Orbital period
99.1 mins
BSTAR
0.0015366

Documentation

Showing up to 5 results
|